• In Belgium
  • List of Countries
  • For 7 days
  • Water Temperature
  • Satellite Maps
  • Weather Map
  • Weather Widgets
  • user-avatar
    Login

    Hourly Weather Annaba

    Today, 22 September, Friday

    Time Temperature Precipitation Wind Pressure Humidity
    00:00 +22°C° 0 mm 3 mps 761 mmHg 64%
    01:00 +22°C° 0 mm 3 mps 761 mmHg 64%
    02:00 +22°C° 0 mm 3 mps 761 mmHg 62%
    03:00 +22°C° 0 mm 3 mps 761 mmHg 60%
    04:00 +23°C° 0 mm 2 mps 761 mmHg 59%
    05:00 +23°C° 0 mm 2 mps 761 mmHg 57%
    06:00 +23°C° 0 mm 2 mps 761 mmHg 55%
    07:00 +24°C° 0 mm 2 mps 761 mmHg 54%
    08:00 +26°C° 0 mm 2 mps 761 mmHg 47%
    09:00 +29°C° 0 mm 2 mps 761 mmHg 40%
    10:00 +31°C° 0 mm 2 mps 761 mmHg 33%
    11:00 +33°C° 0 mm 3 mps 761 mmHg 31%
    12:00 +35°C° 0 mm 3 mps 761 mmHg 29%
    13:00 +36°C° 0 mm 4 mps 760 mmHg 27%
    14:00 +36°C° 0 mm 4 mps 760 mmHg 29%
    15:00 +35°C° 0 mm 4 mps 760 mmHg 31%
    16:00 +35°C° 0 mm 5 mps 760 mmHg 33%
    17:00 +33°C° 0 mm 4 mps 760 mmHg 40%
    18:00 +30°C° 0 mm 4 mps 760 mmHg 47%
    19:00 +28°C° 0 mm 4 mps 760 mmHg 53%
    20:00 +28°C° 0 mm 3 mps 761 mmHg 57%
    21:00 +27°C° 0 mm 2 mps 761 mmHg 61%
    22:00 +26°C° 0 mm 2 mps 761 mmHg 65%
    23:00 +26°C° 0 mm 2 mps 761 mmHg 64%

    Tomorrow, 23 September, Saturday

    Time Temperature Precipitation Wind Pressure Humidity
    00:00 +26°C° 0 mm 2 mps 761 mmHg 63%
    01:00 +26°C° 0 mm 2 mps 761 mmHg 62%
    02:00 +26°C° 0 mm 2 mps 761 mmHg 60%
    03:00 +26°C° 0 mm 2 mps 761 mmHg 59%
    04:00 +25°C° 0 mm 2 mps 761 mmHg 57%
    05:00 +26°C° 0 mm 1 mps 761 mmHg 56%
    06:00 +26°C° 0 mm 1 mps 761 mmHg 55%
    07:00 +26°C° 0 mm 1 mps 761 mmHg 54%
    08:00 +27°C° 0 mm 1 mps 761 mmHg 50%
    09:00 +29°C° 0 mm 1 mps 761 mmHg 46%
    10:00 +30°C° 0 mm 1 mps 762 mmHg 42%
    11:00 +31°C° 0 mm 1 mps 761 mmHg 39%
    12:00 +32°C° 0 mm 1 mps 761 mmHg 36%
    13:00 +33°C° 0 mm 1 mps 761 mmHg 33%
    14:00 +34°C° 0 mm 2 mps 761 mmHg 33%
    15:00 +34°C° 0 mm 3 mps 761 mmHg 34%
    16:00 +34°C° 0 mm 4 mps 760 mmHg 34%
    17:00 +33°C° 0 mm 3 mps 761 mmHg 41%
    18:00 +30°C° 0 mm 3 mps 761 mmHg 47%
    19:00 +28°C° 0 mm 3 mps 761 mmHg 53%
    20:00 +28°C° 0 mm 3 mps 761 mmHg 55%
    21:00 +27°C° 0 mm 3 mps 761 mmHg 57%
    22:00 +26°C° 0 mm 3 mps 761 mmHg 59%
    23:00 +26°C° 0.2 mm 3 mps 761 mmHg 58%

    Day after tomorrow, 24 September, Sunday

    Time Temperature Precipitation Wind Pressure Humidity
    00:00 +26°C° 0.2 mm 2 mps 761 mmHg 56%
    01:00 +26°C° 0.2 mm 2 mps 761 mmHg 55%
    02:00 +26°C° 0.4 mm 2 mps 760 mmHg 56%
    03:00 +26°C° 0.4 mm 2 mps 760 mmHg 57%
    04:00 +25°C° 0.4 mm 2 mps 760 mmHg 57%
    05:00 +25°C° 0.1 mm 2 mps 760 mmHg 58%
    06:00 +25°C° 0.1 mm 2 mps 760 mmHg 59%
    07:00 +25°C° 0.1 mm 1 mps 760 mmHg 60%
    08:00 +27°C° 0.1 mm 1 mps 761 mmHg 57%
    09:00 +28°C° 0.1 mm 1 mps 761 mmHg 53%
    10:00 +30°C° 0.1 mm 1 mps 761 mmHg 49%
    11:00 +31°C° 0 mm 2 mps 761 mmHg 47%
    12:00 +33°C° 0 mm 3 mps 761 mmHg 45%
    13:00 +33°C° 0 mm 4 mps 761 mmHg 44%
    14:00 +33°C° 0 mm 4 mps 761 mmHg 46%
    15:00 +32°C° 0 mm 4 mps 761 mmHg 49%
    16:00 +32°C° 0 mm 5 mps 761 mmHg 51%
    17:00 +29°C° 0 mm 4 mps 761 mmHg 58%
    18:00 +28°C° 0 mm 3 mps 761 mmHg 64%
    19:00 +26°C° 0 mm 2 mps 761 mmHg 70%
    20:00 +26°C° 0 mm 2 mps 762 mmHg 73%
    21:00 +25°C° 0 mm 1 mps 762 mmHg 76%
    22:00 +24°C° 0 mm 1 mps 762 mmHg 78%
    23:00 +24°C° 0 mm 1 mps 762 mmHg 80%

    25 September, Monday

    Time Temperature Precipitation Wind Pressure Humidity
    00:00 +24°C° 0 mm 1 mps 762 mmHg 81%
    01:00 +21°C° 0 mm 0 mps 762 mmHg 82%
    02:00 +21°C° 0 mm 0 mps 762 mmHg 83%
    03:00 +21°C° 0 mm 0 mps 762 mmHg 83%
    04:00 +20°C° 0 mm 0 mps 761 mmHg 84%
    05:00 +21°C° 0 mm 0 mps 761 mmHg 83%
    06:00 +21°C° 0 mm 0 mps 761 mmHg 82%
    07:00 +21°C° 0 mm 0 mps 761 mmHg 81%
    08:00 +23°C° 0 mm 0 mps 762 mmHg 70%
    09:00 +27°C° 0 mm 1 mps 762 mmHg 59%
    10:00 +29°C° 0 mm 1 mps 762 mmHg 48%
    11:00 +30°C° 0 mm 1 mps 762 mmHg 43%
    12:00 +31°C° 0 mm 2 mps 761 mmHg 38%
    13:00 +31°C° 0 mm 2 mps 761 mmHg 33%
    14:00 +31°C° 0 mm 3 mps 761 mmHg 34%
    15:00 +31°C° 0 mm 3 mps 761 mmHg 36%
    16:00 +32°C° 0 mm 4 mps 761 mmHg 37%
    17:00 +29°C° 0 mm 3 mps 761 mmHg 43%
    18:00 +28°C° 0 mm 3 mps 761 mmHg 49%
    19:00 +26°C° 0 mm 2 mps 761 mmHg 55%
    20:00 +25°C° 0 mm 2 mps 761 mmHg 58%
    21:00 +25°C° 0 mm 2 mps 762 mmHg 60%
    22:00 +24°C° 0 mm 1 mps 762 mmHg 63%
    23:00 +24°C° 0 mm 1 mps 762 mmHg 62%

    26 September, Tuesday

    Time Temperature Precipitation Wind Pressure Humidity
    00:00 +24°C° 0 mm 1 mps 762 mmHg 60%
    01:00 +23°C° 0 mm 1 mps 761 mmHg 59%
    02:00 +23°C° 0 mm 1 mps 761 mmHg 58%
    03:00 +23°C° 0 mm 1 mps 761 mmHg 58%
    04:00 +23°C° 0 mm 1 mps 761 mmHg 57%
    05:00 +23°C° 0 mm 1 mps 761 mmHg 56%
    06:00 +23°C° 0 mm 1 mps 761 mmHg 55%
    07:00 +23°C° 0 mm 1 mps 761 mmHg 54%
    08:00 +26°C° 0 mm 1 mps 761 mmHg 47%
    09:00 +28°C° 0 mm 1 mps 761 mmHg 41%
    10:00 +30°C° 0 mm 1 mps 761 mmHg 34%
    11:00 +31°C° 0 mm 1 mps 761 mmHg 31%
    12:00 +32°C° 0 mm 2 mps 761 mmHg 29%
    13:00 +34°C° 0 mm 2 mps 760 mmHg 26%
    14:00 +33°C° 0 mm 3 mps 760 mmHg 28%
    15:00 +33°C° 0 mm 3 mps 760 mmHg 30%
    16:00 +33°C° 0 mm 4 mps 760 mmHg 32%
    17:00 +30°C° 0 mm 3 mps 760 mmHg 38%
    18:00 +28°C° 0 mm 3 mps 760 mmHg 45%
    19:00 +26°C° 0 mm 2 mps 761 mmHg 52%
    20:00 +25°C° 0 mm 2 mps 761 mmHg 56%
    21:00 +25°C° 0 mm 1 mps 762 mmHg 59%
    22:00 +24°C° 0 mm 1 mps 762 mmHg 63%
    23:00 +24°C° 0 mm 1 mps 762 mmHg 64%

    27 September, Wednesday

    Time Temperature Precipitation Wind Pressure Humidity
    00:00 +24°C° 0 mm 1 mps 762 mmHg 64%
    01:00 +23°C° 0 mm 1 mps 762 mmHg 64%
    02:00 +23°C° 0 mm 1 mps 761 mmHg 64%
    03:00 +23°C° 0 mm 1 mps 761 mmHg 64%
    04:00 +23°C° 0 mm 1 mps 761 mmHg 64%
    05:00 +23°C° 0 mm 1 mps 761 mmHg 64%
    06:00 +23°C° 0 mm 1 mps 762 mmHg 64%
    07:00 +23°C° 0 mm 1 mps 762 mmHg 65%
    08:00 +25°C° 0 mm 1 mps 762 mmHg 59%
    09:00 +26°C° 0 mm 1 mps 762 mmHg 53%
    10:00 +28°C° 0 mm 2 mps 762 mmHg 48%
    11:00 +29°C° 0 mm 2 mps 762 mmHg 46%
    12:00 +30°C° 0 mm 3 mps 762 mmHg 43%
    13:00 +31°C° 0 mm 3 mps 762 mmHg 41%
    14:00 +30°C° 0 mm 4 mps 762 mmHg 43%
    15:00 +30°C° 0 mm 4 mps 761 mmHg 46%
    16:00 +30°C° 0 mm 4 mps 761 mmHg 48%
    17:00 +28°C° 0 mm 4 mps 761 mmHg 54%
    18:00 +26°C° 0 mm 3 mps 762 mmHg 60%
    19:00 +25°C° 0 mm 3 mps 762 mmHg 66%
    20:00 +24°C° 0 mm 2 mps 762 mmHg 68%
    21:00 +24°C° 0 mm 2 mps 763 mmHg 70%
    22:00 +23°C° 0 mm 1 mps 763 mmHg 73%
    23:00 +23°C° 0 mm 1 mps 763 mmHg 73%
    Show more